DELTA 1 DEB, 40759

Orbit data source: Space-Track

DELTA 1 DEB, 40759 is space debris in SSO originally from a launch on Thu, 29 Jul 1976 UTC launched from the Air Force Western Test Range (AFWTR). Debris objects in space refer to the collection of defunct objects orbiting the Earth. Examples of debris include non-operational satellites, rocket bodies, and fragments generated from explosions, collisions, or faulty payload assembly.

Loading next visibility...
Identifier
40759, 1976-077GC
Orbit
SSO
Country
Flag of USUS
Related business
Manufacturer
Unknown
Mission
Spacecraft
Bus & Motor
Unknown
Mass
Unknown
Launch date (UTC)
1976-07-29 (50 years ago)
Launch vehicle
Unknown
Launch site
Air Force Western Test Range (AFWTR)
Object type
Payload
Rocket body
Debris
Shape & HBR
Unknown shape, 0.1 m
Radar Cross Section
Small (<0.1 m²)

Expand to show TLE details & history
Last TLE update: 1 week ago

TLE from 1 week ago
0 DELTA 1 DEB
1 40759U 76077GC  26123.52818066 -.00000044  00000-0  18631-4 0  9994
2 40759 102.1156 227.2124 0292088  46.6043 315.8964 12.66491962979350
Epoch: 2026-05-03T12:40Z
TLE epoch observation values (Epoch: 2026-05-03T12:40:34.809Z)
Latitude
-0.00002°
Longitude
175.63693°
Altitude
1,239.072 km
Speed
7.309 km/s
True Right ascension
15h 08m 50s
True Declination
0° 00' 00"
Sunlit
Object was in full shadow at epoch
Visualization orbit readout
Latitude
Unknown
Longitude
Unknown
Altitude
Unknown
Speed
Unknown
Apparent Right ascension
Unknown
Apparent Declination
Unknown
Sunlit
N/A
Visualization observer readout
Local Sidereal Time
00:48:38
Azimuth
Unknown
Elevation
Unknown
Doppler factor
Unknown
Orbital elements
Apogee altitude
1,620.816 km
Perigee altitude
1,166.798 km
Semi-major axis
7,771.944 km
Eccentricity
0.02921
Inclination
102.1156°
RAAN
227.2124°
Arg. of periapsis
46.6043°
True anomaly
313.50502°
Mean anomaly
315.8964°
Eccentric anomaly
314.70699°
Mean motion
3.16773 °/min
Orbital period
113.65 mins
BSTAR
0.000018631
Loading maneuver chart data...
Computing Atmospheric mass density...
Loading historical data...
Loading historical data...
Loading historical data...
Loading historical data...
Loading historical data...
Loading historical data...
Loading historical data...

Documentation

Showing up to 5 results
|